Location: Stanford
(52.2833°N, 2.4333°W)
Time: 03:00:43
(UTC+00:00)

Lacrosse 5 - Pass Details

Date: 22 January 2021
Orbit: 715 x 724 km, 57.0° (Epoch: 22 February)

Event Time Altitude Azimuth Distance (km) Brightness Sun altitude
Rises 17:28:17 0° 298° (WNW) 3,124 5.8 -7.6°
Reaches altitude 10° 17:30:39 10° 297° (WNW) 2,202 5.0 -7.9°
Maximum altitude 17:35:44 82° 211° (SSW) 728 2.0 -8.6°
Drops below altitude 10° 17:40:47 10° 124° (SE) 2,194 4.0 -9.3°
Sets 17:43:10 0° 124° (SE) 3,113 4.8 -9.7°
